Home   Weather   Bystrc   Past weeks
Flag for Czech Republic

Past Weather in Bystrc, Czech Republic — Yesterday and Last 2 Weeks

Now
58 °F

Passing clouds.


Feels Like: 57 °F
Forecast: 71 / 45 °F
Wind: 5 mph from Northeast

Location: Brno / Turany

Current Time: Apr 18, 2019 at 10:38:28 pm

Latest Report: Apr 18, 2019 at 9:00 pm


Visibility: 19 mi

Pressure: 30.39 "Hg

Humidity: 47%

Dew Point: 38 °F

Location of BystrcLocation

Past Weather in Bystrc — Graph

°F

Bystrc Temperature Yesterday

Maximum temperature yesterday: 61 °F (at 4:00 pm)
Minimum temperature yesterday: 40 °F (at 6:00 am)
Average temperature yesterday: 52 °F

High & Low Weather Summary for the Past Weeks

 TemperatureHumidityPressure
High67 °F (Apr 18, 5:00 pm)93% (Apr 6, 6:00 am)30.39 "Hg (Apr 6, 6:00 am)
Low34 °F (Apr 16, 6:00 am)25% (Apr 15, 1:00 pm)29.55 "Hg (Apr 4, 5:00 pm)
Average50 °F57%29.96 "Hg
* Reported Apr 3 9:00 pm — Apr 18 9:00 pm, Bystrc. Weather by CustomWeather, © 2019

Note: Actual official high and low records may vary slightly from our data, if they occured in-between our weather recording intervals... More about our weather records

Advertising

Bystrc Weather History for the Previous 24 Hours

Scroll right to see more
 ConditionsComfort  
Time TempWeatherWind HumidityBarometerVisibility
9:00 pm
Thu, Apr 18
58 °FPassing clouds.5 mph47%30.39 "Hg19 mi
8:00 pm61 °FPassing clouds.5 mph43%30.37 "Hg19 mi
7:00 pm64 °FPassing clouds.5 mph40%30.34 "Hg22 mi
6:00 pm66 °FPassing clouds.5 mph32%30.33 "Hg25 mi
5:00 pm67 °FPassing clouds.3 mph33%30.33 "Hg25 mi
4:00 pm66 °FPassing clouds.5 mph32%30.33 "Hg25 mi
3:00 pm66 °FPassing clouds.5 mph33%30.34 "Hg22 mi
2:00 pm65 °FPassing clouds.7 mph37%30.36 "Hg22 mi
1:00 pm64 °FPassing clouds.6 mph36%30.36 "Hg19 mi
12:00 pm62 °FPassing clouds.6 mph36%30.37 "Hg19 mi
11:00 am60 °FPassing clouds.7 mph41%30.38 "Hg12 mi
10:00 am58 °FPassing clouds.6 mph48%30.38 "Hg12 mi
9:00 am55 °FPassing clouds.6 mph53%30.37 "Hg16 mi
8:00 am46 °FPassing clouds.2 mph70%30.38 "Hg16 mi
7:00 am41 °FSunny.3 mph74%30.39 "Hg16 mi
6:00 am38 °FPassing clouds.2 mph80%30.37 "Hg16 mi
5:00 am41 °FClear.2 mph74%30.36 "Hg19 mi
4:00 am42 °FPassing clouds.2 mph74%30.36 "Hg22 mi
3:00 am46 °FPassing clouds.2 mph67%30.34 "Hg22 mi
2:00 am45 °FPassing clouds.2 mph69%30.34 "Hg22 mi
1:00 am45 °FPassing clouds.3 mph67%30.34 "Hg22 mi
12:00 am50 °FPassing clouds.5 mph57%30.32 "Hg22 mi
11:00 pm
Wed, Apr 17
50 °FPassing clouds.5 mph59%30.32 "Hg22 mi
10:00 pm54 °FPassing clouds.5 mph50%30.30 "Hg22 mi
Weather by CustomWeather, © 2019

See weather overview